Date String (YYYY-MM-DD hh:mm:ss) UTC,Instrument flags,Ambient pressure (hPa),Sample flow (lpm),Bypass flow (lpm),Sample temperature (°C),Ambient temperature (°C),ASC tube jacket temperature (°C),LED temperature (°C),Box temperature (°C),Sample RH (%),Span deviation,Mass concentration (μg/m³),Mass concentration (μg/m³),Mass concentration (μg/m³)
DateTimeUTC,F1_M11,P_M11,Q1_M11,Q2_M11,T1_M11,T2_M11,T3_M11,T4_M11,T5_M11,U1_M11,ZSPAN_M11,X0_M11,X2_M11,X1_M11
2022-01-14 01:00:00,,0825.1,5.02,0.00,30.0,29.1,00.0,39.0,31.7,08.7,0000.0,0020.53,0010.91,0010.13
2022-01-14 01:01:00,,0825.1,4.98,0.00,30.0,29.1,00.0,39.0,31.7,08.6,0002.4,0020.74,0010.86,0010.09
2022-01-14 01:02:00,,0825.1,5.02,0.00,30.0,29.1,00.0,39.0,31.7,08.4,0002.6,0021.01,0010.86,0010.07
2022-01-14 01:03:00,,0825.0,5.00,0.00,30.0,29.1,00.0,39.0,31.7,08.3,0000.0,0021.37,0010.86,0010.04
2022-01-14 01:04:00,,0825.0,4.99,0.00,30.0,29.1,00.0,39.0,31.7,08.3,0000.0,0021.83,0010.91,0010.04
2022-01-14 01:05:00,,0825.0,5.02,0.00,30.0,29.1,00.0,39.0,31.7,08.4,0000.0,0021.72,0010.96,0010.05
2022-01-14 01:06:00,,0825.1,4.99,0.00,30.0,29.1,00.0,39.0,31.7,08.6,0000.0,0021.35,0010.96,0010.06
2022-01-14 01:07:00,,0825.1,5.01,0.00,30.0,29.1,00.0,39.0,31.7,08.5,0000.0,0020.42,0010.98,0010.06
2022-01-14 01:08:00,,0825.1,5.00,0.00,30.0,29.1,00.0,39.0,31.7,08.7,0003.4,0019.53,0010.99,0010.07
2022-01-14 01:09:00,,0825.1,4.99,0.00,30.0,29.1,00.0,39.0,31.7,08.7,0006.1,0018.34,0010.95,0010.05
2022-01-14 01:10:00,,0825.1,5.00,0.00,30.0,29.1,00.0,39.0,31.7,08.5,0006.2,0017.99,0010.94,0010.06
2022-01-14 01:11:00,,0825.0,4.99,0.00,30.0,29.1,00.0,39.0,31.7,08.4,0005.7,0017.36,0010.97,0010.10
2022-01-14 01:12:00,,0824.9,5.02,0.00,30.0,29.1,00.0,39.0,31.6,08.3,0004.4,0017.02,0010.98,0010.13
2022-01-14 01:13:00,,0824.9,4.99,0.00,30.0,29.1,00.0,39.0,31.6,08.4,0005.3,0016.77,0010.98,0010.15
2022-01-14 01:14:00,,0824.8,5.01,0.00,29.9,29.1,00.0,39.0,31.6,08.4,0004.6,0016.54,0011.03,0010.18
2022-01-14 01:15:00,,0824.9,4.98,0.00,29.9,29.0,00.0,39.0,31.6,08.5,0004.0,0016.33,0011.05,0010.18
2022-01-14 01:16:00,,0824.9,5.00,0.00,29.9,29.0,00.0,39.0,31.6,08.7,0003.7,0016.35,0011.05,0010.20
2022-01-14 01:17:00,,0825.0,4.98,0.00,29.9,29.0,00.0,39.0,31.6,08.8,0002.7,0017.24,0011.05,0010.20
2022-01-14 01:18:00,,0825.0,5.00,0.00,29.9,29.0,00.0,38.9,31.6,08.9,0002.5,0017.78,0011.06,0010.21
2022-01-14 01:19:00,,0825.0,5.01,0.00,29.9,29.0,00.0,38.9,31.6,08.9,0001.8,0018.53,0011.08,0010.22
2022-01-14 01:20:00,,0825.0,4.99,0.00,29.9,29.0,00.0,38.9,31.6,08.8,0000.0,0019.66,0011.12,0010.26
2022-01-14 01:21:00,,0825.0,5.01,0.00,29.9,29.0,00.0,38.9,31.6,08.8,0000.0,0019.87,0011.17,0010.29
2022-01-14 01:22:00,,0825.0,4.99,0.00,29.9,29.0,00.0,38.9,31.6,08.8,0000.0,0019.27,0011.17,0010.27
2022-01-14 01:23:00,,0825.0,4.98,0.00,29.9,29.0,00.0,38.9,31.6,08.8,0002.1,0019.26,0011.18,0010.29
2022-01-14 01:24:00,,0824.9,5.01,0.00,29.9,29.0,00.0,38.9,31.6,08.8,0005.4,0020.21,0011.20,0010.29
2022-01-14 01:25:00,,0825.0,4.99,0.00,29.9,29.0,00.0,38.9,31.6,08.9,0005.3,0021.14,0011.16,0010.27
2022-01-14 01:26:00,,0825.1,5.01,0.00,29.9,29.0,00.0,38.9,31.5,08.9,0005.1,0021.09,0011.12,0010.27
2022-01-14 01:27:00,,0825.1,5.00,0.00,29.8,29.0,00.0,38.9,31.5,08.9,0005.2,0020.84,0011.09,0010.26
2022-01-14 01:28:00,,0825.0,5.01,0.00,29.8,28.9,00.0,38.9,31.5,08.8,0005.0,0020.45,0011.09,0010.27
2022-01-14 01:29:00,,0825.0,4.99,0.00,29.8,28.9,00.0,38.9,31.5,08.6,0005.6,0020.76,0011.10,0010.27
2022-01-14 01:30:00,,0825.0,5.00,0.00,29.8,28.9,00.0,38.9,31.5,08.5,0005.9,0019.74,0011.12,0010.29
2022-01-14 01:31:00,,0825.1,5.00,0.00,29.8,28.9,00.0,38.8,31.5,08.6,0005.9,0018.66,0011.14,0010.31
2022-01-14 01:32:00,,0825.1,5.00,0.00,29.8,28.9,00.0,38.8,31.5,08.8,0005.9,0018.37,0011.13,0010.31
2022-01-14 01:33:00,,0825.2,4.99,0.00,29.8,28.9,00.0,38.8,31.5,08.9,0005.6,0018.43,0011.13,0010.32
2022-01-14 01:34:00,,0825.2,5.01,0.00,29.8,28.9,00.0,38.8,31.4,08.9,0005.1,0018.50,0011.12,0010.33
2022-01-14 01:35:00,,0825.1,4.98,0.00,29.8,28.9,00.0,38.8,31.4,08.9,0004.8,0018.28,0011.07,0010.32
2022-01-14 01:36:00,,0825.1,5.02,0.00,29.7,28.9,00.0,38.8,31.4,08.9,0003.9,0018.16,0011.07,0010.34
2022-01-14 01:37:00,,0825.0,4.99,0.00,29.7,28.9,00.0,38.8,31.4,08.9,0003.0,0017.83,0011.09,0010.35
2022-01-14 01:38:00,,0824.9,5.01,0.00,29.7,28.8,00.0,38.8,31.4,09.0,0002.4,0018.09,0011.16,0010.38
2022-01-14 01:39:00,,0824.9,5.01,0.00,29.7,28.8,00.0,38.8,31.4,08.7,0003.8,0017.88,0011.24,0010.41
2022-01-14 01:40:00,,0825.0,4.99,0.00,29.7,28.8,00.0,38.8,31.4,08.6,0004.9,0017.40,0011.25,0010.41
2022-01-14 01:41:00,,0825.1,5.00,0.00,29.7,28.8,00.0,38.8,31.4,08.6,0001.4,0017.47,0011.24,0010.41
2022-01-14 01:42:00,,0825.2,4.99,0.00,29.7,28.9,00.0,38.8,31.4,08.6,0000.6,0017.44,0011.24,0010.40
2022-01-14 01:43:00,,0825.2,5.00,0.00,29.7,28.8,00.0,38.8,31.3,08.8,-000.3,0017.47,0011.28,0010.41
2022-01-14 01:44:00,,0825.2,5.00,0.00,29.7,28.8,00.0,38.7,31.3,08.7,-000.4,0018.14,0011.33,0010.43
2022-01-14 01:45:00,,0825.1,4.99,0.00,29.6,28.8,00.0,38.7,31.3,08.5,-000.2,0018.37,0011.35,0010.44
2022-01-14 01:46:00,,0825.1,4.99,0.00,29.6,28.8,00.0,38.7,31.3,08.4,0000.1,0018.28,0011.34,0010.42
2022-01-14 01:47:00,,0825.1,5.00,0.00,29.6,28.8,00.0,38.7,31.3,08.4,0001.1,0017.15,0011.33,0010.39
2022-01-14 01:48:00,,0825.1,5.01,0.00,29.6,28.8,00.0,38.7,31.3,08.4,0000.7,0017.80,0011.28,0010.36
2022-01-14 01:49:00,,0825.1,4.99,0.00,29.6,28.8,00.0,38.7,31.3,08.5,0000.0,0018.33,0011.22,0010.35
2022-01-14 01:50:00,,0825.1,5.00,0.00,29.6,28.8,00.0,38.7,31.3,08.6,0005.7,0018.42,0011.15,0010.33
2022-01-14 01:51:00,,0825.1,5.01,0.00,29.6,28.7,00.0,38.7,31.3,08.7,0003.6,0018.59,0011.13,0010.33
2022-01-14 01:52:00,,0825.0,4.99,0.00,29.6,28.7,00.0,38.7,31.2,08.7,0004.3,0018.78,0011.17,0010.35
2022-01-14 01:53:00,,0825.0,5.01,0.00,29.5,28.7,00.0,38.6,31.2,08.7,0002.3,0018.97,0011.22,0010.39
2022-01-14 01:54:00,,0824.9,4.98,0.00,29.5,28.7,00.0,38.6,31.2,08.7,0000.0,0019.87,0011.22,0010.39
2022-01-14 01:55:00,,0824.9,5.00,0.00,29.5,28.7,00.0,38.6,31.2,08.7,0000.0,0021.31,0011.19,0010.38
2022-01-14 01:56:00,,0825.0,5.00,0.00,29.5,28.7,00.0,38.6,31.1,08.7,0000.0,0021.17,0011.21,0010.39
2022-01-14 01:57:00,,0825.1,5.00,0.00,29.5,28.6,00.0,38.6,31.1,08.7,0000.0,0021.51,0011.26,0010.42
2022-01-14 01:58:00,,0825.1,5.01,0.00,29.4,28.5,00.0,38.6,31.0,08.7,0000.0,0021.88,0011.33,0010.46
2022-01-14 01:59:00,,0825.1,4.99,0.00,29.3,28.4,00.0,38.6,30.9,08.8,0000.0,0021.94,0011.36,0010.47
